TimePST,TemperatureF,Dew PointF,Humidity,Sea Level PressureIn,VisibilityMPH,Wind Direction,Wind SpeedMPH,Gust SpeedMPH,PrecipitationIn,Events,Conditions,WindDirDegrees,DateUTC
5:35 AM,41.0,24.8,53,30.20,8.0,NW,8.1,-,N/A,,Clear,320,2014-01-29 13:35:00
5:55 AM,41.0,24.8,53,30.19,8.0,Calm,Calm,-,N/A,,Clear,0,2014-01-29 13:55:00
6:15 AM,41.0,24.8,53,30.19,8.0,West,4.6,-,N/A,,Clear,260,2014-01-29 14:15:00
6:35 AM,41.0,24.8,53,30.19,7.0,WNW,3.5,-,N/A,,Clear,290,2014-01-29 14:35:00
6:55 AM,42.8,24.8,49,30.19,7.0,SW,5.8,-,N/A,,Clear,230,2014-01-29 14:55:00
7:15 AM,41.0,24.8,53,30.19,5.0,NW,4.6,-,N/A,,Haze,310,2014-01-29 15:15:00
7:35 AM,44.6,24.8,46,30.20,6.0,NW,8.1,-,N/A,,Haze,320,2014-01-29 15:35:00
7:55 AM,46.4,26.6,46,30.21,6.0,Calm,Calm,-,N/A,,Haze,0,2014-01-29 15:55:00
8:15 AM,46.4,26.6,46,30.20,5.0,NW,11.5,-,N/A,,Haze,320,2014-01-29 16:15:00
8:35 AM,48.2,26.6,43,30.20,6.0,NW,12.7,-,N/A,,Haze,320,2014-01-29 16:35:00
8:55 AM,48.2,26.6,43,30.21,5.0,NW,8.1,-,N/A,,Haze,310,2014-01-29 16:55:00
9:15 AM,51.8,28.4,41,30.20,5.0,WNW,6.9,-,N/A,,Haze,300,2014-01-29 17:15:00
9:35 AM,55.4,28.4,36,30.20,5.0,NW,10.4,-,N/A,,Haze,320,2014-01-29 17:35:00
9:55 AM,-9999,-9999,N/A,-9999,-9999.0,North,-9999.0,-,N/A,,Unknown,0,2014-01-29 17:55:00
10:15 AM,-9999,-9999,N/A,-9999,5.0,North,-9999.0,-,N/A,,Haze,0,2014-01-29 18:15:00
10:35 AM,-9999,-9999,N/A,30.19,-9999.0,NW,12.7,-,N/A,,Unknown,310,2014-01-29 18:35:00
10:55 AM,57.2,28.4,33,30.19,6.0,NW,20.7,25.3,N/A,,Haze,310,2014-01-29 18:55:00
11:15 AM,57.2,28.4,33,30.19,5.0,NW,20.7,-,N/A,,Haze,310,2014-01-29 19:15:00
11:35 AM,-9999,-9999,N/A,30.18,-9999.0,NW,17.3,-,N/A,,Unknown,320,2014-01-29 19:35:00
11:55 AM,57.2,30.2,36,30.17,5.0,NW,16.1,-,N/A,,Haze,320,2014-01-29 19:55:00
12:15 PM,59.0,32.0,36,30.16,6.0,NW,15.0,-,N/A,,Haze,310,2014-01-29 20:15:00
12:35 PM,-9999,-9999,N/A,-9999,-9999.0,North,-9999.0,-,N/A,,Unknown,0,2014-01-29 20:35:00
12:55 PM,-9999,-9999,N/A,-9999,-9999.0,North,-9999.0,-,N/A,,Unknown,0,2014-01-29 20:55:00
1:15 PM,60.8,32.0,34,30.12,8.0,NW,13.8,-,N/A,,Unknown,320,2014-01-29 21:15:00
1:35 PM,60.8,32.0,34,-9999,8.0,North,-9999.0,-,N/A,,Clear,0,2014-01-29 21:35:00
1:55 PM,-9999,-9999,N/A,-9999,7.0,North,-9999.0,-,N/A,,Unknown,0,2014-01-29 21:55:00
2:15 PM,-9999,-9999,N/A,-9999,-9999.0,North,-9999.0,-,N/A,,Unknown,0,2014-01-29 22:15:00
2:35 PM,-9999,-9999,N/A,-9999,-9999.0,North,-9999.0,-,N/A,,Unknown,0,2014-01-29 22:35:00
2:55 PM,-9999,-9999,N/A,-9999,-9999.0,North,-9999.0,-,N/A,,Unknown,0,2014-01-29 22:55:00
3:15 PM,-9999,-9999,N/A,-9999,-9999.0,North,-9999.0,-,N/A,,Unknown,0,2014-01-29 23:15:00
3:35 PM,-9999,-9999,N/A,-9999,-9999.0,North,-9999.0,-,N/A,,Unknown,0,2014-01-29 23:35:00
3:55 PM,-9999,-9999,N/A,-9999,-9999.0,North,-9999.0,-,N/A,,Unknown,0,2014-01-29 23:55:00
4:15 PM,-9999,-9999,N/A,-9999,-9999.0,North,-9999.0,-,N/A,,Unknown,0,2014-01-30 00:15:00
4:35 PM,-9999,-9999,N/A,-9999,-9999.0,North,-9999.0,-,N/A,,Unknown,0,2014-01-30 00:35:00
4:55 PM,53.6,32.0,44,30.07,5.0,NW,13.8,-,N/A,,Haze,310,2014-01-30 00:55:00
5:15 PM,50.0,32.0,50,30.07,5.0,NW,13.8,-,N/A,,Haze,320,2014-01-30 01:15:00
5:35 PM,50.0,32.0,50,30.06,5.0,NW,11.5,-,N/A,,Haze,320,2014-01-30 01:35:00
5:55 PM,48.2,32.0,54,30.06,6.0,NW,17.3,-,N/A,,Haze,310,2014-01-30 01:55:00
6:15 PM,48.2,32.0,54,30.07,6.0,NW,13.8,-,N/A,,Haze,310,2014-01-30 02:15:00
6:35 PM,46.4,32.0,57,30.07,6.0,NW,16.1,-,N/A,,Haze,320,2014-01-30 02:35:00
6:55 PM,46.4,32.0,57,30.07,6.0,NW,17.3,-,N/A,,Haze,320,2014-01-30 02:55:00
7:15 PM,46.4,32.0,57,30.07,6.0,NW,13.8,19.6,N/A,,Haze,320,2014-01-30 03:15:00
7:35 PM,46.4,32.0,57,30.06,6.0,WNW,11.5,-,N/A,,Haze,300,2014-01-30 03:35:00
7:55 PM,44.6,32.0,61,30.05,6.0,WNW,10.4,-,N/A,,Haze,300,2014-01-30 03:55:00
8:15 PM,46.4,32.0,57,30.05,7.0,West,9.2,-,N/A,,Clear,280,2014-01-30 04:15:00
8:35 PM,44.6,32.0,61,30.05,6.0,WNW,8.1,-,N/A,,Haze,290,2014-01-30 04:35:00
8:55 PM,44.6,30.2,57,30.05,7.0,WNW,9.2,-,N/A,,Clear,300,2014-01-30 04:55:00
9:15 PM,46.4,32.0,57,30.04,7.0,NW,11.5,-,N/A,,Clear,310,2014-01-30 05:15:00
9:35 PM,46.4,32.0,57,30.04,7.0,West,6.9,-,N/A,,Clear,280,2014-01-30 05:35:00
9:55 PM,46.4,32.0,57,30.04,6.0,West,9.2,-,N/A,,Haze,270,2014-01-30 05:55:00
10:15 PM,46.4,32.0,57,30.04,6.0,West,6.9,-,N/A,,Haze,280,2014-01-30 06:15:00
10:35 PM,44.6,32.0,61,30.03,6.0,West,5.8,-,N/A,,Haze,280,2014-01-30 06:35:00
10:55 PM,46.4,32.0,57,30.02,7.0,WNW,4.6,-,N/A,,Clear,300,2014-01-30 06:55:00
11:15 PM,44.6,32.0,61,30.02,7.0,WNW,4.6,-,N/A,,Clear,300,2014-01-30 07:15:00
11:35 PM,44.6,32.0,61,30.00,6.0,WNW,5.8,-,N/A,,Haze,300,2014-01-30 07:35:00
11:55 PM,44.6,35.6,71,30.00,7.0,West,5.8,-,N/A,,Clear,270,2014-01-30 07:55:00